User: anonymous   Login
Location: Caltech
(34.1382°N, 118.1253°W)
Time: 00:59:07
(UTC-08:00)
Language:

Meteor 1-11 Rocket - Orbit

View from above orbital plane
View from above orbital plane
View from above satellite
View from above satellite

Ground track
Ground track

The orbit data is extracted from the following two-line orbital elements,

1 05918U 72022B   17055.76361626 -.00000032  00000-0 -26322-4 0  9997
2 05918  81.2345  74.6304 0057058 283.1449  76.3356 14.05818188302197
Epoch (UTC): 24 February 2017 18:19:36
Eccentricity: 0.0057058
inclination: 81.2345°
perigee height: 832 km
apogee height: 915 km
right ascension of ascending node: 74.6304°
argument of perigee: 283.1449°
revolutions per day: 14.05818188
mean anomaly at epoch: 76.3356°
orbit number at epoch: 30219

The dashed part of the orbit path shows where the satellite is in the earth's shadow,  

DLR